This is the latest recevied weather packets stored in our database for station/object W0AVQ. If no packets are shown the sender has not sent any weather packets the latest 10 day(s).
| Time | Temp. | Humidity | Pressure | Rain* | Wind** | Luminosity | Snow |
|---|---|---|---|---|---|---|---|
| 1777836278 | 20.56° C | 47% | 1018.4 hPa | 0 mm | - | 428 W/m² | - |
| 1777835973 | 20° C | 43% | 1018.8 hPa | 0 mm | - | 121 W/m² | - |
| 1777835671 | 20.56° C | 44% | 1019 hPa | 0 mm | - | 63 W/m² | - |
| 1777835367 | 20.56° C | 49% | 1018.9 hPa | 0 mm | - | 60 W/m² | - |
| 1777835065 | 20.56° C | 48% | 1019.3 hPa | 0 mm | - | 62 W/m² | - |
| 1777834762 | 20° C | 49% | 1019.2 hPa | 0 mm | - | 64 W/m² | - |
| 1777834458 | 20° C | 47% | 1019.3 hPa | 0 mm | - | 68 W/m² | - |
| 1777834157 | 20.56° C | 46% | 1019.4 hPa | 0 mm | - | 62 W/m² | - |
| 1777833854 | 20° C | 47% | 1019.4 hPa | 0 mm | - | 62 W/m² | - |
| 1777833550 | 20° C | 47% | 1019.5 hPa | 0 mm | - | 58 W/m² | - |
| 1777833247 | 19.44° C | 47% | 1020 hPa | 0 mm | - | 57 W/m² | - |
| 1777832944 | 20° C | 47% | 1019.9 hPa | 0 mm | - | 58 W/m² | - |
| 1777832643 | 20° C | 47% | 1019.8 hPa | 0 mm | - | 57 W/m² | - |
| 1777832340 | 19.44° C | 46% | 1019.9 hPa | 0 mm | - | 56 W/m² | - |
| 1777832037 | 18.89° C | 50% | 1020.1 hPa | 0 mm | - | 57 W/m² | - |
| 1777831733 | 18.89° C | 48% | 1020.1 hPa | 0 mm | - | 57 W/m² | - |
| 1777831431 | 18.89° C | 48% | 1020.2 hPa | 0 mm | - | 57 W/m² | - |
| 1777831127 | 19.44° C | 46% | 1020.4 hPa | 0 mm | - | 57 W/m² | - |
| 1777830826 | 18.89° C | 47% | 1020.5 hPa | 0 mm | - | 57 W/m² | - |
| 1777830521 | 19.44° C | 49% | 1020.6 hPa | 0 mm | - | 58 W/m² | - |
| 1777830219 | 18.89° C | 51% | 1021 hPa | 0 mm | - | 65 W/m² | - |
| 1777829914 | 18.89° C | 50% | 1020.9 hPa | 0 mm | - | 71 W/m² | - |
| 1777829611 | 18.89° C | 50% | 1021.1 hPa | 0 mm | - | 77 W/m² | - |
| 1777829308 | 18.89° C | 49% | 1021.2 hPa | 0 mm | - | 85 W/m² | - |
| 1777829006 | 18.89° C | 48% | 1021.2 hPa | 0 mm | - | 92 W/m² | - |
* Rain latest hour (hover to see other rain measurements)
** Current wind speed in m/s (hover to see current wind gust speed)